When you browse on this site, cookies collect data to enhance your experience and personalize the content and advertising you see.
Visit our Privacy Policy to learn more. By continuing to use the site, you agree to this use of cookies and data.
  • In Hungary
  • List of Countries
  • For 7 days
  • Water Temperature
  • Weather Map
  • News
  • Weather Widgets
  • user-avatar
    Login

    Hourly Weather Boksyce

    Today, 17 September, Tuesday

    Time Temperature Precipitation Wind Pressure Humidity
    00:00 +10°C° 0 mm 3 mps 735 mmHg 73%
    01:00 +9°C° 0 mm 2 mps 735 mmHg 75%
    02:00 +9°C° 0 mm 2 mps 735 mmHg 77%
    03:00 +9°C° 0 mm 2 mps 735 mmHg 79%
    04:00 +9°C° 0 mm 2 mps 734 mmHg 82%
    05:00 +9°C° 0 mm 3 mps 735 mmHg 79%
    06:00 +10°C° 0 mm 3 mps 735 mmHg 76%
    07:00 +11°C° 0 mm 4 mps 735 mmHg 73%
    08:00 +12°C° 0 mm 4 mps 735 mmHg 66%
    09:00 +13°C° 0 mm 5 mps 734 mmHg 59%
    10:00 +15°C° 0 mm 6 mps 734 mmHg 52%
    11:00 +14°C° 0 mm 6 mps 734 mmHg 53%
    12:00 +14°C° 0 mm 6 mps 733 mmHg 54%
    13:00 +14°C° 0 mm 6 mps 732 mmHg 55%
    14:00 +14°C° 0 mm 6 mps 732 mmHg 57%
    15:00 +13°C° 0 mm 6 mps 731 mmHg 59%
    16:00 +13°C° 0 mm 6 mps 731 mmHg 60%
    17:00 +12°C° 0 mm 5 mps 731 mmHg 63%
    18:00 +12°C° 0 mm 5 mps 731 mmHg 65%
    19:00 +10°C° 0 mm 5 mps 730 mmHg 68%
    20:00 +10°C° 0.4 mm 6 mps 730 mmHg 71%
    21:00 +9°C° 0.4 mm 7 mps 730 mmHg 75%
    22:00 +7°C° 0.4 mm 8 mps 730 mmHg 79%
    23:00 +6°C° 0 mm 8 mps 730 mmHg 79%

    Tomorrow, 18 September, Wednesday

    Time Temperature Precipitation Wind Pressure Humidity
    00:00 +5°C° 0 mm 7 mps 731 mmHg 79%
    01:00 +5°C° 0 mm 7 mps 731 mmHg 79%
    02:00 +4°C° 0 mm 8 mps 731 mmHg 78%
    03:00 +4°C° 0 mm 8 mps 731 mmHg 77%
    04:00 +4°C° 0 mm 8 mps 732 mmHg 76%
    05:00 +5°C° 0 mm 9 mps 732 mmHg 75%
    06:00 +5°C° 0 mm 9 mps 733 mmHg 73%
    07:00 +6°C° 0 mm 9 mps 733 mmHg 71%
    08:00 +7°C° 0 mm 9 mps 734 mmHg 69%
    09:00 +7°C° 0 mm 10 mps 735 mmHg 66%
    10:00 +8°C° 0 mm 10 mps 736 mmHg 64%
    11:00 +10°C° 0 mm 9 mps 736 mmHg 60%
    12:00 +11°C° 0 mm 9 mps 737 mmHg 57%
    13:00 +11°C° 0 mm 8 mps 737 mmHg 53%
    14:00 +11°C° 0 mm 8 mps 737 mmHg 54%
    15:00 +12°C° 0 mm 8 mps 737 mmHg 54%
    16:00 +12°C° 0 mm 7 mps 737 mmHg 55%
    17:00 +10°C° 0 mm 6 mps 738 mmHg 59%
    18:00 +9°C° 0 mm 5 mps 738 mmHg 63%
    19:00 +7°C° 0 mm 4 mps 738 mmHg 67%
    20:00 +7°C° 0 mm 4 mps 738 mmHg 70%
    21:00 +7°C° 0 mm 4 mps 739 mmHg 72%
    22:00 +6°C° 0 mm 4 mps 739 mmHg 74%
    23:00 +6°C° 0 mm 4 mps 739 mmHg 75%

    Day after tomorrow, 19 September, Thursday

    Time Temperature Precipitation Wind Pressure Humidity
    00:00 +6°C° 0 mm 4 mps 740 mmHg 77%
    01:00 +6°C° 0 mm 4 mps 740 mmHg 79%
    02:00 +6°C° 0.1 mm 4 mps 740 mmHg 79%
    03:00 +6°C° 0.1 mm 4 mps 740 mmHg 80%
    04:00 +6°C° 0.1 mm 4 mps 740 mmHg 80%
    05:00 +6°C° 0 mm 4 mps 740 mmHg 76%
    06:00 +7°C° 0 mm 4 mps 740 mmHg 73%
    07:00 +7°C° 0 mm 5 mps 740 mmHg 69%
    08:00 +8°C° 0 mm 5 mps 741 mmHg 63%
    09:00 +9°C° 0 mm 5 mps 741 mmHg 57%
    10:00 +12°C° 0 mm 4 mps 741 mmHg 51%
    11:00 +12°C° 0.1 mm 4 mps 741 mmHg 51%
    12:00 +13°C° 0.1 mm 4 mps 741 mmHg 51%
    13:00 +13°C° 0.1 mm 4 mps 741 mmHg 51%
    14:00 +13°C° 0.5 mm 4 mps 741 mmHg 55%
    15:00 +12°C° 0.5 mm 4 mps 741 mmHg 60%
    16:00 +12°C° 0.5 mm 4 mps 741 mmHg 64%
    17:00 +11°C° 0.3 mm 4 mps 741 mmHg 70%
    18:00 +9°C° 0.3 mm 3 mps 741 mmHg 76%
    19:00 +8°C° 0.3 mm 3 mps 741 mmHg 82%
    20:00 +7°C° 0 mm 3 mps 741 mmHg 82%
    21:00 +7°C° 0 mm 3 mps 742 mmHg 83%
    22:00 +5°C° 0 mm 3 mps 742 mmHg 83%
    23:00 +5°C° 0 mm 3 mps 742 mmHg 85%

    20 September, Friday

    Time Temperature Precipitation Wind Pressure Humidity
    00:00 +4°C° 0 mm 3 mps 742 mmHg 87%
    01:00 +5°C° 0 mm 2 mps 742 mmHg 89%
    02:00 +5°C° 0 mm 2 mps 742 mmHg 89%
    03:00 +5°C° 0 mm 2 mps 742 mmHg 90%
    04:00 +4°C° 0 mm 2 mps 742 mmHg 91%
    05:00 +5°C° 0 mm 2 mps 742 mmHg 88%
    06:00 +5°C° 0 mm 3 mps 743 mmHg 85%
    07:00 +7°C° 0 mm 3 mps 743 mmHg 82%
    08:00 +7°C° 0 mm 4 mps 743 mmHg 72%
    09:00 +10°C° 0 mm 4 mps 743 mmHg 62%
    10:00 +12°C° 0 mm 5 mps 744 mmHg 52%
    11:00 +12°C° 0 mm 5 mps 743 mmHg 49%
    12:00 +13°C° 0 mm 5 mps 743 mmHg 46%
    13:00 +14°C° 0 mm 5 mps 743 mmHg 42%
    14:00 +13°C° 0 mm 5 mps 743 mmHg 45%
    15:00 +13°C° 0 mm 5 mps 743 mmHg 47%
    16:00 +12°C° 0 mm 4 mps 743 mmHg 50%
    17:00 +11°C° 0 mm 4 mps 743 mmHg 57%
    18:00 +9°C° 0 mm 3 mps 743 mmHg 64%
    19:00 +8°C° 0 mm 2 mps 744 mmHg 71%
    20:00 +7°C° 0 mm 2 mps 744 mmHg 73%
    21:00 +7°C° 0 mm 2 mps 744 mmHg 75%
    22:00 +6°C° 0 mm 2 mps 744 mmHg 77%
    23:00 +7°C° 0 mm 1 mps 744 mmHg 77%

    21 September, Saturday

    Time Temperature Precipitation Wind Pressure Humidity
    00:00 +7°C° 0 mm 1 mps 745 mmHg 78%
    01:00 +7°C° 0 mm 1 mps 745 mmHg 79%
    02:00 +6°C° 0 mm 1 mps 745 mmHg 80%
    03:00 +6°C° 0 mm 1 mps 745 mmHg 81%
    04:00 +6°C° 0 mm 1 mps 745 mmHg 82%
    05:00 +7°C° 0 mm 1 mps 745 mmHg 79%
    06:00 +8°C° 0 mm 1 mps 745 mmHg 75%
    07:00 +9°C° 0 mm 1 mps 745 mmHg 71%
    08:00 +11°C° 0 mm 1 mps 746 mmHg 64%
    09:00 +12°C° 0 mm 1 mps 746 mmHg 57%
    10:00 +14°C° 0 mm 2 mps 746 mmHg 50%
    11:00 +15°C° 0 mm 2 mps 746 mmHg 48%
    12:00 +16°C° 0 mm 2 mps 746 mmHg 46%
    13:00 +17°C° 0 mm 2 mps 745 mmHg 44%
    14:00 +17°C° 0 mm 2 mps 745 mmHg 46%
    15:00 +16°C° 0 mm 2 mps 745 mmHg 48%
    16:00 +16°C° 0 mm 1 mps 745 mmHg 50%
    17:00 +15°C° 0 mm 1 mps 745 mmHg 55%
    18:00 +13°C° 0 mm 1 mps 745 mmHg 61%
    19:00 +11°C° 0 mm 1 mps 745 mmHg 66%
    20:00 +11°C° 0 mm 1 mps 745 mmHg 67%
    21:00 +11°C° 0 mm 1 mps 745 mmHg 67%
    22:00 +10°C° 0 mm 1 mps 745 mmHg 67%
    23:00 +10°C° 0 mm 1 mps 745 mmHg 67%

    22 September, Sunday

    Time Temperature Precipitation Wind Pressure Humidity
    00:00 +10°C° 0 mm 1 mps 745 mmHg 68%
    01:00 +9°C° 0 mm 1 mps 745 mmHg 68%
    02:00 +9°C° 0 mm 1 mps 745 mmHg 69%
    03:00 +9°C° 0 mm 1 mps 745 mmHg 70%
    04:00 +8°C° 0 mm 1 mps 744 mmHg 70%
    05:00 +9°C° 0 mm 1 mps 744 mmHg 69%
    06:00 +10°C° 0 mm 1 mps 744 mmHg 67%
    07:00 +10°C° 0 mm 2 mps 744 mmHg 65%
    08:00 +13°C° 0 mm 2 mps 744 mmHg 59%
    09:00 +15°C° 0 mm 2 mps 744 mmHg 52%
    10:00 +17°C° 0 mm 2 mps 744 mmHg 46%
    11:00 +19°C° 0 mm 2 mps 744 mmHg 44%
    12:00 +20°C° 0 mm 3 mps 744 mmHg 41%
    13:00 +21°C° 0 mm 3 mps 743 mmHg 39%
    14:00 +21°C° 0 mm 3 mps 743 mmHg 42%
    15:00 +20°C° 0 mm 2 mps 743 mmHg 45%
    16:00 +20°C° 0 mm 2 mps 742 mmHg 48%
    17:00 +18°C° 0 mm 2 mps 742 mmHg 55%
    18:00 +16°C° 0 mm 2 mps 742 mmHg 61%
    19:00 +14°C° 0 mm 2 mps 741 mmHg 67%
    20:00 +13°C° 0 mm 2 mps 742 mmHg 67%
    21:00 +12°C° 0 mm 2 mps 742 mmHg 67%
    22:00 +12°C° 0 mm 2 mps 742 mmHg 66%
    23:00 +10°C° 0 mm 2 mps 742 mmHg 66%
    Show more